Погода в Непалганже

Непал     28°03′35″N   81°37′06″E
темп.,
°C
ветер,
м/с
пор.,
м/с
влажн.,
%
обл.,
%
осадки,
мм/ч
давл.,
гПа
погр.,
м
9 марта, вт
вт923:45+21св22280 0.0 101423
02:45+19св12310 0.0 101323
05:45+18ссв12350 0.0 101323
08:45+24в22250 0.0 1015247
11:45+32юз32150 0.0 10141281
14:45+35з4590 0.0 10103149
17:45+32юз48130 0.0 1010257
20:45+24зсз22220 0.0 101224
10 марта, ср
ср1023:45+22ссв34220 0.0 101237
02:45+21ссв22230 0.0 101123
05:45+18з11270 0.0 101123
08:45+25в33190 0.0 1014282
11:45+34ю22120 0.0 1013940
14:45+37зюз45110 0.0 10103720
17:45+33зюз34130 0.0 1008114
20:45+28сз34170 0.0 101130
11 марта, чт
чт1123:45+23ссз23240 0.0 101225
02:45+21св232716 0.0 101123
05:45+20св23298 0.0 101224
08:45+27в45204 0.0 1014281
11:45+35ююв33122 0.0 10141311
14:45+38зюз4380 0.0 10104216
17:45+34з47110 0.0 1010251
20:45+26зсз22170 0.0 101324
12 марта, пт
пт1223:45+23ссв23200 0.0 101423
02:45+22св23220 0.0 101323
05:45+20всв23252 0.0 101323
08:45+27юв34172 0.0 1016284
11:45+34юв231251 0.0 1015822
14:45+37юз339100 0.0 10123164
17:45+34з691299 0.0 1013525
20:45+29зсз81520100 0.0 1015669
13 марта, сб
сб1323:45+27ссз2321100 0.0 101662
02:45+25ю1425100 0.0 1015109
05:45+23с3330100 0.0 101560
08:45+26зюз222589 0.1 1017218
11:45+32в331877 0.3 10161431
14:45+35зсз25140 0.0 10123636
17:45+34зюз36148 0.0 1011349
20:45+25зсз33230 0.0 101243